Theta_e
300 300 300 301 301 307 309 305 302 303 302 300 303 302 300 300 299 301 304 304 304 305 299 299 299 300 301 301 301 300 304 306 304 302 302 300 302 302 301 301 301 301 301 298 296
301 300 300 300 300 304 309 304 300 302 301 301 303 304 301 302 300 301 302 304 303 302 299 300 300 301 303 302 302 303 304 304 301 301 301 301 301 302 301 302 302 302 301 297 295
301 301 300 300 300 301 304 302 302 302 302 301 302 304 301 302 301 300 301 301 300 298 298 299 299 301 302 302 302 301 304 300 301 300 301 301 301 301 301 301 301 299 297 296 296
301 301 301 300 300 300 300 300 300 301 301 301 302 304 304 305 303 299 298 298 298 298 298 299 300 302 302 303 300 302 300 300 301 300 300 300 301 301 300 300 295 295 294 294 296
301 301 301 300 300 300 300 300 299 300 300 301 301 302 300 301 300 298 299 299 299 298 298 299 301 301 302 301 300 301 300 299 300 299 300 300 300 300 299 295 294 293 293 294 294
303 302 302 301 301 300 300 300 298 299 300 301 302 303 301 301 299 298 299 299 300 299 299 299 300 299 300 300 301 300 300 300 300 300 299 298 299 298 297 293 294 293 292 292 292
305 305 304 302 301 300 300 299 299 300 299 302 303 301 299 300 298 298 299 299 299 299 301 300 299 300 300 300 299 299 301 299 298 299 299 297 298 299 295 293 294 293 293 292 291
308 309 308 305 301 300 300 298 300 300 300 302 302 300 301 298 298 298 298 299 299 299 300 299 300 300 300 298 298 299 299 303 301 298 298 297 299 299 294 294 294 292 292 291 290
309 311 311 307 301 300 300 298 300 299 301 301 301 300 300 298 298 298 298 299 298 299 299 299 300 299 299 301 303 301 304 303 301 297 298 297 298 298 294 292 293 292 291 290 289
310 311 311 308 302 300 298 299 299 300 301 299 297 299 297 299 297 298 298 298 299 300 300 301 300 301 301 304 309 303 303 303 303 300 297 298 298 298 296 293 292 291 291 290 289
311 311 311 309 302 299 298 299 300 302 298 300 298 298 298 297 297 297 297 298 298 300 302 300 302 304 301 300 300 300 301 303 302 298 297 297 297 297 296 293 292 290 289 288 287
311 311 311 309 301 299 297 300 299 298 300 297 297 298 297 297 299 298 297 299 300 302 299 301 303 300 299 300 300 301 302 304 299 298 297 297 297 297 295 294 290 288 287 286 286
314 312 312 309 300 300 297 298 299 300 302 299 297 298 297 298 299 299 298 298 300 301 301 302 300 299 299 300 301 302 302 301 299 297 295 297 300 296 294 292 290 289 286 285 284
314 313 312 310 300 299 297 298 300 300 308 302 298 298 298 298 299 297 296 298 299 301 300 301 299 299 300 300 299 303 298 297 297 297 302 297 304 297 294 292 291 289 286 284 284
314 314 313 311 301 300 297 299 299 300 326 299 297 296 297 299 298 298 295 297 300 300 300 302 299 300 300 300 297 302 297 296 295 297 296 298 299 299 292 293 291 287 285 284 283
314 315 312 309 301 299 297 299 300 319 325 300 298 298 299 299 298 298 297 297 296 299 299 300 297 298 299 297 296 295 297 294 296 297 302 297 299 300 296 293 289 286 284 283 283
313 313 309 306 301 298 300 301 316 323 303 305 298 299 299 300 299 299 299 299 302 307 305 299 298 297 295 299 296 298 299 309 309 307 309 296 297 299 291 288 286 283 282 281 282
313 313 307 303 300 297 301 310 321 317 310 297 298 299 300 299 299 299 299 301 297 297 301 307 310 298 295 297 298 296 297 303 308 309 303 295 298 300 289 286 284 282 280 282 282
311 307 302 299 299 301 307 314 320 313 298 297 298 302 305 300 299 299 299 300 299 297 307 305 306 295 294 293 295 297 301 294 296 292 295 299 297 291 288 289 288 283 282 282 281
308 302 297 298 298 302 306 315 312 298 297 300 306 302 308 303 301 300 300 298 299 296 294 298 308 296 294 293 293 296 294 300 296 304 309 304 298 301 292 289 286 282 282 281 281
307 303 297 297 301 303 310 309 301 296 298 305 305 304 303 303 300 302 301 298 297 295 294 295 298 299 295 297 300 296 298 294 294 295 303 304 306 291 288 286 283 282 281 280 280
304 305 295 296 303 300 306 301 298 296 296 298 297 301 303 301 303 300 301 299 296 296 299 295 298 305 300 290 290 293 296 296 301 302 296 296 300 288 285 282 281 281 280 280 280
300 298 295 298 307 304 301 299 297 297 298 301 300 298 295 301 301 297 299 295 295 297 298 296 301 309 305 296 292 294 292 291 291 291 297 301 309 285 282 282 280 279 279 279 279
303 305 297 296 298 302 303 303 303 297 297 299 299 296 296 300 294 297 297 296 295 296 296 296 297 302 312 305 295 296 292 292 293 298 298 298 300 295 290 284 280 279 278 277 277
303 303 300 308 303 300 300 303 302 302 297 297 299 299 301 303 295 295 296 296 296 298 296 296 299 292 294 287 287 292 292 292 293 293 300 297 289 293 288 282 278 276 277 277 277
304 304 298 301 299 300 301 304 305 304 301 299 300 299 300 298 299 300 296 297 298 297 297 292 300 291 295 284 283 291 292 290 291 289 287 288 289 289 280 275 278 277 276 276 276
298 297 303 303 300 301 303 303 306 303 301 297 298 298 297 297 295 294 294 294 296 298 297 295 297 296 306 290 291 299 292 290 290 288 292 298 300 283 286 285 282 280 277 277 276
Wind_Speed
12 12 13 14 16 17 17 15 12 9 8 6 6 9 12 10 10 10 8 8 11 13 11 3 5 4 4 4 3 1 3 4 3 3 1 0 4 2 5 12 9 8 11 10 18
13 14 14 15 15 16 16 14 11 6 6 4 4 7 9 2 3 11 6 12 13 9 2 5 3 3 3 3 2 2 3 1 1 2 6 8 9 11 9 14 15 15 8 17 19
13 14 15 15 15 16 17 14 11 6 5 3 4 5 6 1 1 4 12 12 7 4 3 3 3 2 3 1 2 1 2 2 3 4 5 8 12 12 13 14 5 10 14 19 17
13 14 14 15 15 15 16 13 11 6 3 1 3 4 3 1 1 3 12 7 5 3 3 4 3 3 3 2 1 3 2 3 2 2 6 11 10 9 10 7 4 7 10 14 16
13 14 15 15 16 15 17 13 10 7 3 1 5 3 2 2 2 5 8 4 5 6 5 2 2 2 3 3 2 3 1 4 7 11 10 6 10 11 12 3 4 8 9 12 14
13 14 16 16 17 18 17 12 11 7 3 2 3 4 2 2 4 8 3 4 7 6 6 3 2 1 5 2 1 0 8 11 8 6 4 7 11 6 2 3 5 7 9 12 14
13 15 16 17 18 20 17 16 11 3 4 4 2 4 1 3 2 8 2 5 6 3 4 3 1 3 3 3 1 3 5 7 2 2 3 6 12 9 1 3 7 11 12 13 14
13 16 17 18 19 21 16 15 6 2 5 4 2 3 2 2 3 6 4 4 4 5 5 3 3 4 2 1 2 2 2 8 3 4 1 2 13 2 2 5 8 10 11 13 15
13 15 17 19 20 21 16 10 2 3 5 3 2 2 2 3 3 3 3 2 3 2 3 2 1 1 2 2 1 3 9 14 10 2 5 7 15 1 3 3 7 8 10 12 14
13 15 17 19 21 17 16 2 0 3 3 2 1 2 2 3 3 3 3 4 1 3 2 1 1 2 1 5 4 7 9 10 16 7 10 18 23 17 7 6 4 8 10 11 12
14 16 17 19 21 14 12 1 1 2 0 2 1 1 4 3 3 4 1 3 2 1 3 1 4 4 1 1 1 6 10 19 17 11 10 17 19 18 9 8 5 7 10 12 13
13 15 18 19 16 12 7 4 2 2 4 1 1 2 2 4 2 2 2 4 3 4 2 3 6 4 1 2 5 7 15 14 9 9 14 17 22 16 9 8 2 8 11 12 14
13 13 16 20 8 8 9 4 1 1 3 1 2 2 1 3 2 2 1 2 2 3 4 5 2 3 1 3 5 8 10 9 17 22 10 10 10 2 6 7 5 8 9 10 12
14 12 12 16 3 7 3 6 1 1 2 3 1 1 1 2 2 1 2 0 2 3 2 6 2 2 5 3 2 6 3 12 17 7 5 2 6 4 6 7 7 11 12 12 13
15 13 10 9 5 2 5 4 1 1 5 3 2 1 1 2 2 2 2 2 3 3 3 2 2 2 3 2 1 7 14 13 3 4 5 5 4 2 3 7 4 12 12 12 12
12 14 9 4 3 3 4 2 1 1 6 2 2 2 1 1 1 1 1 3 1 2 3 3 0 2 2 2 2 10 6 3 1 2 4 4 2 5 3 2 7 12 13 13 14
5 11 7 2 2 3 5 2 2 3 1 0 1 1 1 1 1 0 0 2 2 2 2 2 2 2 2 3 3 9 7 4 3 2 3 4 5 9 5 4 5 11 12 11 12
5 11 4 2 3 1 1 3 5 1 2 0 1 1 3 1 2 1 1 3 3 2 1 2 2 1 2 2 1 6 3 2 7 5 7 2 6 2 1 3 6 7 8 8 11
9 9 5 4 3 3 3 2 3 2 1 1 2 1 3 2 2 2 4 3 3 5 3 1 2 3 2 1 2 4 2 2 4 2 4 4 4 4 2 5 10 9 9 10 12
7 6 5 3 4 5 2 5 3 1 1 3 2 1 3 3 2 2 5 3 5 1 2 3 4 1 3 2 5 2 7 1 2 5 7 5 5 5 2 11 15 11 10 10 11
3 3 3 5 4 3 3 3 1 2 3 3 2 2 5 2 3 2 3 2 3 5 3 4 1 2 2 4 3 3 3 3 2 3 4 6 1 2 3 9 13 11 9 9 9
2 1 2 1 1 0 2 1 2 1 2 4 3 0 3 2 2 4 3 1 6 7 4 4 1 3 0 1 2 1 2 3 2 2 4 4 6 4 2 5 8 10 7 7 7
2 2 3 3 1 1 1 2 3 3 5 2 4 4 1 3 3 3 2 2 6 5 3 5 2 4 2 2 2 4 5 3 4 1 6 3 4 3 2 4 6 7 6 5 6
2 1 1 1 1 1 2 3 2 3 4 2 2 2 1 3 3 3 2 3 4 2 4 5 2 5 4 2 2 3 5 9 4 3 2 8 10 4 6 7 6 6 6 6 6
1 1 0 1 2 3 1 2 2 2 3 3 3 7 5 4 2 4 3 3 3 6 3 1 4 1 5 2 3 4 5 11 11 4 6 2 5 14 7 5 4 5 5 5 5
1 2 0 2 2 4 4 3 3 2 4 3 6 3 7 4 2 2 5 5 3 7 5 2 1 1 4 1 3 6 9 11 13 5 12 11 12 5 1 2 3 2 2 3 3
2 2 0 4 3 2 2 3 2 1 4 2 5 3 6 6 7 3 1 1 2 6 9 4 3 1 4 1 4 6 6 12 5 7 5 5 1 3 4 3 3 2 2 1 1
Wind_Direction
13 13 13 10 5 4 2 3 17 27 36 62 120 132 132 98 56 43 45 350 327 326 335 5 46 86 85 79 49 262 206 242 242 214 349 152 312 308 295 283 288 280 305 334 329
7 7 7 5 5 4 357 5 10 17 28 37 136 154 167 94 62 51 359 334 328 321 15 40 67 67 80 79 45 234 235 253 129 230 271 284 287 301 288 281 279 277 277 331 338
2 6 2 3 1 2 360 1 359 359 8 41 138 162 190 249 194 9 346 341 351 12 59 77 87 64 83 62 44 142 269 139 230 250 289 290 282 285 278 282 311 307 315 325 328
2 1 359 358 358 357 357 354 352 344 344 49 152 159 198 190 322 340 344 0 26 28 69 64 93 101 112 154 106 247 237 248 314 262 301 291 300 264 267 289 305 304 315 316 321
2 360 356 354 353 352 350 349 341 328 307 264 164 178 165 120 105 346 354 36 52 61 58 61 81 135 136 161 200 241 297 270 266 288 290 270 254 269 266 290 307 321 318 321 318
358 358 352 350 351 348 346 344 332 311 267 200 171 175 210 237 139 11 17 79 73 69 62 49 95 157 115 147 237 222 294 290 293 282 281 278 281 279 169 319 313 321 325 322 316
354 353 351 349 348 346 343 337 327 278 205 188 173 169 181 125 155 3 130 98 77 79 93 61 80 237 145 136 120 301 296 302 264 193 262 303 264 233 136 306 312 322 323 319 316
353 350 348 347 345 344 341 340 338 148 165 174 195 160 152 171 204 1 135 106 89 90 87 83 76 77 355 87 124 279 248 337 68 277 275 299 289 189 213 321 317 319 319 319 318
347 345 346 346 345 343 341 338 8 135 157 169 175 194 176 165 161 43 128 183 116 89 76 69 49 20 235 348 165 58 321 322 329 200 284 239 292 76 230 272 300 318 318 320 319
341 344 346 346 345 347 344 338 79 145 152 125 111 168 173 192 143 110 100 134 135 141 191 191 209 241 251 8 342 318 320 311 307 327 269 271 273 276 237 244 282 317 324 324 323
333 337 343 348 345 351 354 91 208 197 117 252 116 75 130 128 145 56 103 144 152 193 233 56 246 255 257 121 285 286 292 301 304 333 282 268 278 287 250 227 254 324 333 333 328
322 331 339 344 344 3 9 58 65 296 294 218 143 80 116 167 156 58 97 196 209 232 188 217 242 121 150 236 275 295 304 308 313 273 294 280 287 284 228 229 253 330 339 331 327
309 321 336 341 345 15 62 50 346 82 260 208 220 168 175 167 180 105 153 144 222 217 214 253 83 130 296 304 305 300 286 311 305 322 276 294 273 232 199 201 220 329 336 331 332
296 306 328 344 348 353 55 8 158 18 294 169 203 123 102 133 204 51 38 201 178 267 213 259 112 202 266 275 356 309 104 317 319 320 316 3 296 238 186 210 223 342 340 338 337
288 287 310 345 327 5 341 359 298 299 307 104 139 87 83 219 102 157 48 154 227 192 172 74 192 218 268 145 216 261 321 308 292 259 312 179 258 177 190 220 307 345 343 338 337
265 265 272 306 15 357 345 349 3 327 248 124 127 175 219 125 138 314 128 59 31 197 215 276 223 245 294 284 232 307 311 281 203 251 248 168 262 266 209 218 317 343 344 341 333
274 247 239 235 120 0 345 35 12 232 76 3 289 243 263 211 207 280 124 181 244 262 218 192 177 134 318 274 159 17 336 327 271 253 308 168 255 280 178 211 302 330 330 333 333
277 226 195 142 142 100 39 62 232 91 241 88 144 188 255 66 213 200 205 222 193 202 130 297 247 196 4 32 29 57 10 34 299 316 313 284 240 314 116 248 271 314 309 338 342
215 158 105 64 140 119 99 158 242 222 339 314 226 184 241 208 255 235 221 231 157 186 226 196 237 118 57 129 281 116 60 87 265 201 273 247 260 144 202 312 323 344 343 355 346
168 106 51 88 116 67 90 232 224 77 47 58 264 235 280 181 204 223 193 148 160 150 161 123 274 157 134 160 58 42 139 204 159 309 296 280 281 309 341 331 319 341 347 353 343
110 80 26 119 95 75 230 228 323 72 201 200 248 232 256 273 209 240 218 141 169 137 105 143 253 130 166 201 160 157 161 135 244 243 294 310 349 69 31 319 308 328 343 352 340
80 66 48 76 81 79 236 285 44 347 289 267 251 172 257 279 257 242 241 246 151 156 155 165 248 258 168 360 325 24 171 165 208 164 237 281 280 144 94 315 300 323 336 352 332
91 106 33 34 245 231 139 232 219 182 224 251 214 216 170 223 237 226 235 72 151 173 164 164 205 287 193 189 177 225 179 155 109 113 226 270 314 187 210 325 309 320 343 330 308
145 126 42 62 93 265 229 221 233 200 249 175 204 155 243 227 214 295 244 144 177 169 136 150 259 253 257 311 52 204 188 186 184 213 181 238 294 291 349 352 339 338 346 307 328
14 232 231 158 231 214 193 305 212 248 226 215 233 219 205 237 224 230 206 155 174 171 111 183 256 233 272 280 250 263 208 192 202 191 235 12 261 305 334 313 311 314 312 318 346
148 163 71 110 131 173 197 222 227 214 180 222 232 164 216 234 238 345 176 206 194 177 190 141 254 278 268 133 223 269 229 214 228 235 264 286 284 212 117 239 246 238 295 325 353
106 85 65 153 160 176 222 242 281 143 199 240 226 176 198 249 296 279 195 358 201 173 190 172 202 272 268 287 277 275 219 188 180 199 189 206 192 175 178 163 220 179 189 228 299